Voltar ao catálogo

FENGYUN 1C DEB

AtivoPO
NORAD 36273·DEBRIS·🇨🇳 China

Lançado May 10, 1999 de Taiyuan Satellite Launch Center

Loading…

Próximas Passagens (próximas 24 horas)

TLE

EnvelhecendoSource: Space-Track

Época: Sep 8, 2026, 11:59 UTC

1 36273U 99025DXA 26251.49931046  .00000276  00000-0  15628-3 0  9998
2 36273  99.5702 146.7874 0095985 316.6824  42.6830 14.16841588700532

Acompanhe FENGYUN 1C DEB em tempo real com AllMySat

Download on the App Store